[[{"header":{"parameterUnit":"m.s-1","parameterCategory":1,"la1":30.2991,"la2":30.254,"lo1":-89.0895,"lo2":-89.0444,"dy":0.0017,"dx":0.0017,"nx":28,"ny":28,"refTime":"2024-04-08T03:00:00:Z","depth":0,"parameterNumber":2,"parameterNumberName":"U-component_of_WINDS"},"data":[0,0,0,0,0,0,0,0,0,0,0,0,0,0,0,0,0,0,0,0,0,0,0,0,0,0,0,0,0,0,0,0,0,0,0,0,0,0,0,0,0,0,0,0,0,0,0,0,0,0,0,0,0,0,0,0,0,0,-8.486,-8.4861,0,-8.4976,-8.4978,-8.4979,-8.4919,-8.4916,-8.4912,-8.491,-8.5021,-8.5027,-8.5033,0,0,0,0,0,0,0,0,0,0,0,0,0,-8.4578,-8.4583,-8.4859,-8.4861,-8.4862,-8.4976,-8.4978,-8.4979,-8.4919,-8.4915,-8.4912,-8.4908,-8.5019,-8.5026,-8.5033,0,0,0,0,0,0,0,0,0,0,0,0,0,-8.4698,-8.4585,-8.4859,-8.4846,-8.4846,-8.4976,-8.4978,-8.498,-8.492,-8.4915,-8.4911,-8.4906,-8.5017,-8.5026,-8.5034,-8.5181,0,0,-8.5061,-8.5065,0,0,0,0,0,0,0,0,-8.4691,-8.4708,-8.4847,-8.4847,-8.4848,-8.4928,-8.4919,-8.5047,-8.4921,-8.4892,-8.491,-8.4904,-8.4994,-8.5004,-8.5036,-8.5186,-8.5191,-8.5062,-8.5067,-8.5071,-8.5073,0,0,0,0,0,0,0,-8.4683,-8.4703,-8.4905,-8.4849,-8.4849,-8.4833,-8.4845,-8.4943,-8.4967,-8.4894,-8.489,-8.4905,-8.4993,-8.5027,-8.5038,-8.5192,-8.5061,-8.5069,-8.5075,-8.5078,-8.5467,-8.5472,0,0,0,0,0,0,-8.4676,-8.4696,-8.4902,-8.4909,-8.4757,-8.4841,-8.4855,-8.4907,-8.4966,-8.497,-8.4909,-8.4902,-8.5015,-8.5028,-8.5042,-8.5215,-8.5071,-8.5079,-8.5084,-8.5462,-8.5468,-8.5474,0,0,0,0,0,0,-8.467,-8.4695,-8.4897,-8.4802,-8.4826,-8.4851,-8.491,-8.4912,-8.4946,-8.4977,-8.498,-8.494,-8.5012,-8.5029,-8.5147,-8.5218,-8.5083,-8.5091,-8.5456,-8.5464,-8.5471,-8.5564,0,0,0,0,0,0,-8.4663,-8.4693,-8.475,-8.4804,-8.4832,-8.5002,-8.4915,-8.4917,-8.4962,-8.4954,-8.5007,-8.5011,-8.5009,-8.5134,-8.5156,-8.5227,-8.5098,-8.545,-8.546,-8.5469,-8.5554,-8.5573,-8.559,0,0,0,0,0,-8.4653,-8.477,-8.4754,-8.4779,-8.4904,-8.5006,-8.5022,-8.5019,-8.4969,-8.5025,-8.5045,-8.501,-8.5208,-8.5147,-8.517,-8.5246,-8.5445,-8.5457,-8.5468,-8.5546,-8.557,-8.5589,0,0,0,0,0,0,-8.4721,-8.4777,-8.4759,-8.4898,-8.4948,-8.4996,-8.5066,-8.5045,-8.5108,-8.5098,-8.509,-8.5102,-8.5224,-8.5247,-8.5178,-8.539,-8.5318,-8.5335,-8.537,-8.5392,-8.541,-8.5399,-8.5105,0,0,0,0,0,-8.4753,-8.4835,-8.4878,-8.4996,-8.5023,-8.5041,-8.5085,-8.508,-8.513,-8.5151,-8.5179,-8.5228,-8.5301,-8.5349,-8.5418,-8.5559,-8.5568,-8.5623,-8.5641,-8.5656,-8.5668,-8.5743,-8.5767,-8.5511,-8.5511,-8.5511,0,0,-8.4818,-8.4859,-8.491,-8.5011,-8.5049,-8.5131,-8.5059,-8.5148,-8.5208,-8.5163,-8.5275,-8.5299,-8.5353,-8.5483,-8.5541,-8.5506,-8.5742,-8.567,-8.5682,-8.5686,-8.5757,-8.5781,-8.5803,-8.5519,-8.5518,-8.5516,0,0,-8.4978,-8.5019,-8.512,-8.5162,-8.5222,-8.5234,-8.5259,-8.5312,-8.5326,-8.544,-8.5408,-8.5479,-8.5606,-8.5645,-8.5681,-8.586,-8.5829,-8.5883,-8.5974,-8.6047,-8.6067,-8.6085,-8.6145,-8.6167,-8.5897,-8.5897,-8.5897,0,-8.5049,-8.5174,-8.5175,-8.5268,-8.5312,-8.528,-8.5382,-8.5421,-8.55,-8.553,-8.5491,-8.565,-8.5684,-8.5821,-8.5866,-8.5898,-8.5923,-8.5874,-8.6065,-8.6082,-8.6099,-8.6156,-8.6179,-8.5903,-8.5902,-8.5902,-8.5901,0,-8.5258,-8.5345,-8.542,-8.55,-8.5553,-8.565,-8.5664,-8.5718,-8.5709,-8.5725,-8.5841,-8.5882,-8.5958,-8.5991,-8.5982,-8.6128,-8.6104,-8.6066,-8.5992,-8.6129,-8.6182,-8.6205,-8.5911,-8.5909,-8.5908,-8.5906,0,0,-8.5457,-8.5541,-8.5568,-8.5603,-8.567,-8.5736,-8.5832,-8.5909,-8.5954,-8.6011,-8.6088,-8.6199,-8.6164,-8.6206,-8.6201,-8.6266,-8.6402,-8.6219,-8.622,-8.6248,-8.6562,-8.6586,-8.6612,-8.6385,-8.6389,-8.6392,-8.6556,0,-8.5618,-8.5787,-8.5793,-8.5946,-8.6025,-8.5998,-8.6081,-8.6129,-8.6148,-8.6216,-8.6236,-8.6312,-8.6263,-8.6287,-8.6351,-8.6372,-8.6464,-8.6361,-8.6452,-8.6456,-8.6434,-8.6641,-8.6667,-8.6819,-8.6577,-8.6581,-8.6583,0,-8.5827,-8.5894,-8.6055,-8.6111,-8.6145,-8.6219,-8.6291,-8.6358,-8.6412,-8.6421,-8.647,-8.6457,-8.6553,-8.6481,-8.6611,-8.6541,-8.658,-8.6596,-8.6602,-8.6605,-8.6523,-8.6645,-8.6868,-8.6888,-8.6617,-8.6614,-8.6612,0,-8.5951,-8.6082,-8.6195,-8.6228,-8.6297,-8.6349,-8.638,-8.6431,-8.6478,-8.6541,-8.657,-8.6643,-8.6681,-8.6737,-8.6743,-8.6692,-8.6873,-8.6803,-8.688,-8.6879,-8.6914,-8.691,-8.714,-8.6948,-8.6948,-8.6947,-8.6947,0,-8.6127,-8.6226,-8.6252,-8.6321,-8.6431,-8.6437,-8.6545,-8.6572,-8.6618,-8.669,-8.6672,-8.674,-8.6747,-8.6816,-8.6822,-8.6927,-8.6945,-8.6953,-8.6952,-8.6951,-8.695,-8.6972,-8.696,-8.6953,-8.6952,-8.6951,-8.695,0,-8.6282,-8.6304,-8.6425,-8.6483,-8.65,-8.6578,-8.6625,-8.669,-8.671,-8.6801,-8.6823,-8.6851,-8.6932,-8.6946,-8.7041,-8.7045,-8.7169,-8.716,-8.7151,-8.7147,-8.7222,-8.7213,-8.747,-8.7502,-8.7294,-8.7296,-8.7297,0,-8.639,-8.6466,-8.6533,-8.6581,-8.6615,-8.6694,-8.6742,-8.6752,-8.6803,-8.6873,-8.6929,-8.7009,-8.7073,-8.7203,-8.7231,-8.7303,-8.7292,-8.7378,-8.7302,-8.7299,-8.7288,-8.7282,-8.7288,-8.739,-8.7392,-8.7394,-8.7396,0,-8.6577,-8.6586,-8.6658,-8.6735,-8.6794,-8.6854,-8.6911,-8.6951,-8.6969,-8.7027,-8.7111,-8.7161,-8.726,-8.7338,-8.7411,-8.744,-8.7419,-8.7421,-8.7441,-8.7438,-8.7428,-8.743,-8.7184,-8.7413,-8.7411,-8.741,-8.7409,-8.7408,-8.6709,-8.6775,-8.6833,-8.6913,-8.6959,-8.7013,-8.7077,-8.7106,-8.7177,-8.7259,-8.7261,-8.7353,-8.7406,-8.7502,-8.7537,-8.7607,-8.7579,-8.761,-8.7617,-8.7623,-8.7628,-8.7422,-8.7621,-8.762,-8.762,-8.7619,-8.7619,0,-8.6892,-8.6929,-8.7004,-8.7086,-8.7149,-8.7131,-8.7194,-8.7247,-8.7328,-8.7382,-8.7446,-8.7543,-8.762,-8.7656,-8.7731,-8.778,-8.7772,-8.7799,-8.7792,-8.7799,-8.7651,-8.7623,-8.7803,-8.7803,-8.7803,-8.7803,-8.7803,-8.7803,-8.6994,-8.7104,-8.712,-8.7251,-8.7287,-8.7379,-8.7416,-8.7465,-8.7508,-8.7617,-8.7682,-8.7707,-8.7752,-8.7831,-8.79,-8.7909,-8.7935,-8.7965,-8.7968,-8.7828,-8.7809,-8.7791,-8.7765,-8.7972,-8.7972,-8.811,-8.8111,-8.8112]},{"header":{"parameterUnit":"m.s-1","parameterCategory":1,"la1":30.2991,"la2":30.254,"lo1":-89.0895,"lo2":-89.0444,"dy":0.0017,"dx":0.0017,"nx":28,"ny":28,"refTime":"2024-04-08T03:00:00:Z","depth":0,"parameterNumber":3,"parameterNumberName":"V-component_of_WINDS"},"data":[0,0,0,0,0,0,0,0,0,0,0,0,0,0,0,0,0,0,0,0,0,0,0,0,0,0,0,0,0,0,0,0,0,0,0,0,0,0,0,0,0,0,0,0,0,0,0,0,0,0,0,0,0,0,0,0,0,0,3.8855,3.8855,0,3.89,3.8901,3.8901,3.8906,3.8905,3.8905,3.8904,3.8948,3.8949,3.8951,0,0,0,0,0,0,0,0,0,0,0,0,0,3.8771,3.8773,3.8855,3.8855,3.8856,3.89,3.8901,3.8901,3.8906,3.8905,3.8905,3.8904,3.8947,3.8949,3.8951,0,0,0,0,0,0,0,0,0,0,0,0,0,3.8811,3.8773,3.8855,3.8864,3.8865,3.89,3.8901,3.8902,3.8906,3.8905,3.8905,3.8904,3.8947,3.8949,3.8951,3.898,0,0,3.8958,3.8959,0,0,0,0,0,0,0,0,3.8809,3.8814,3.8862,3.8863,3.8865,3.8897,3.8887,3.8928,3.8906,3.889,3.8904,3.8904,3.8931,3.8935,3.8945,3.8982,3.8983,3.8959,3.896,3.8961,3.8962,0,0,0,0,0,0,0,3.8806,3.8812,3.8873,3.8862,3.8864,3.8865,3.887,3.8895,3.8914,3.8892,3.8892,3.8898,3.8932,3.8942,3.8946,3.8984,3.8959,3.8961,3.8962,3.8963,3.9049,3.905,0,0,0,0,0,0,3.8802,3.881,3.8871,3.8874,3.8835,3.8867,3.8873,3.8887,3.8914,3.8917,3.8898,3.8898,3.8939,3.8943,3.8947,3.8984,3.8961,3.8963,3.8965,3.9048,3.9049,3.905,0,0,0,0,0,0,3.88,3.8807,3.8869,3.8842,3.885,3.8869,3.8886,3.8888,3.8899,3.8919,3.8922,3.8906,3.8938,3.8944,3.8972,3.8985,3.8964,3.8966,3.9047,3.9049,3.905,3.9056,0,0,0,0,0,0,3.8798,3.8807,3.8817,3.8842,3.8852,3.8894,3.8886,3.889,3.8903,3.8903,3.8926,3.893,3.8938,3.8969,3.8975,3.8988,3.8968,3.9046,3.9048,3.9049,3.9054,3.9057,3.9059,0,0,0,0,0,3.8795,3.8816,3.8818,3.8825,3.8866,3.8895,3.89,3.891,3.8904,3.8916,3.8929,3.8929,3.8983,3.8972,3.8978,3.8992,3.9045,3.9047,3.9049,3.9053,3.9056,3.9059,0,0,0,0,0,0,3.879,3.8819,3.8822,3.8852,3.8871,3.8895,3.891,3.8913,3.8933,3.8932,3.8943,3.8948,3.8977,3.8987,3.8974,3.9023,3.9014,3.9017,3.9014,3.9017,3.902,3.9016,3.897,0,0,0,0,0,3.8793,3.8815,3.8839,3.8863,3.8873,3.889,3.8903,3.891,3.8929,3.8937,3.8952,3.897,3.8992,3.9005,3.9026,3.9056,3.9062,3.907,3.9072,3.9074,3.9076,3.9095,3.9099,3.9057,3.9057,3.9057,0,0,3.8798,3.8817,3.883,3.8863,3.8878,3.8901,3.8896,3.8919,3.8936,3.894,3.8968,3.898,3.9002,3.9032,3.9046,3.9042,3.909,3.9077,3.9078,3.9079,3.9097,3.9101,3.9105,3.9058,3.9058,3.9058,0,0,3.8819,3.8836,3.8859,3.8875,3.89,3.8912,3.8917,3.8942,3.8951,3.898,3.8984,3.9004,3.904,3.9056,3.9068,3.91,3.9101,3.9106,3.9118,3.9136,3.9139,3.9142,3.9154,3.9158,3.9109,3.9109,3.9109,0,3.8823,3.8857,3.887,3.8894,3.8909,3.8916,3.894,3.8955,3.8984,3.8994,3.899,3.9037,3.9052,3.9087,3.9095,3.9105,3.9112,3.9103,3.9138,3.9141,3.9144,3.9155,3.916,3.9109,3.9109,3.9109,3.9109,0,3.886,3.8884,3.89,3.893,3.8947,3.8971,3.8988,3.9003,3.9009,3.9022,3.9052,3.9071,3.9096,3.9105,3.911,3.9141,3.9138,3.9136,3.9127,3.9149,3.9159,3.9164,3.911,3.911,3.911,3.9109,0,0,3.8877,3.8917,3.8923,3.8938,3.8967,3.8985,3.901,3.9037,3.905,3.9071,3.9092,3.9125,3.9124,3.9138,3.9145,3.9161,3.9186,3.9157,3.9158,3.9162,3.9223,3.9224,3.9229,3.9188,3.9189,3.9189,3.9221,0,3.8902,3.8947,3.8961,3.8999,3.9022,3.903,3.9052,3.9072,3.9085,3.9106,3.912,3.9143,3.914,3.9149,3.9165,3.918,3.9198,3.9178,3.9207,3.9208,3.9201,3.9234,3.9235,3.9264,3.9225,3.9226,3.9226,0,3.8936,3.896,3.9001,3.903,3.904,3.9059,3.9086,3.9106,3.913,3.9138,3.9156,3.9163,3.9189,3.918,3.9217,3.9203,3.9216,3.9225,3.9227,3.9229,3.9218,3.9237,3.9273,3.9277,3.9233,3.9232,3.9232,0,3.8945,3.8988,3.9018,3.903,3.9064,3.9078,3.9093,3.9116,3.9132,3.9155,3.9166,3.9192,3.9205,3.9225,3.9239,3.9231,3.9275,3.9266,3.9282,3.9282,3.929,3.9289,3.9328,3.9299,3.9299,3.9299,3.9299,0,3.8971,3.8996,3.9023,3.9041,3.907,3.9086,3.9113,3.9128,3.915,3.9171,3.918,3.92,3.9217,3.924,3.9251,3.928,3.9286,3.9293,3.9296,3.9292,3.9291,3.93,3.9299,3.93,3.93,3.93,3.93,0,3.8986,3.9005,3.9039,3.9069,3.9078,3.9097,3.9123,3.9142,3.9156,3.9184,3.9191,3.9213,3.924,3.9257,3.929,3.9298,3.933,3.9332,3.9323,3.9324,3.9339,3.9337,3.9384,3.9392,3.9358,3.9358,3.9359,0,3.9001,3.902,3.9054,3.907,3.9086,3.9111,3.9128,3.9146,3.9163,3.9194,3.9208,3.9237,3.926,3.9303,3.9321,3.9348,3.935,3.9365,3.9354,3.935,3.935,3.9349,3.9351,3.9366,3.9367,3.9367,3.9367,0,3.9026,3.9035,3.906,3.909,3.9111,3.9134,3.9157,3.917,3.9191,3.921,3.9239,3.9258,3.9294,3.9321,3.935,3.9364,3.9369,3.9371,3.9376,3.9372,3.9366,3.937,3.9327,3.9369,3.9369,3.9369,3.9369,3.9369,3.9041,3.906,3.9088,3.9116,3.9136,3.9158,3.9178,3.9196,3.9221,3.9252,3.9261,3.9292,3.9317,3.9356,3.9371,3.9395,3.9393,3.94,3.9402,3.9403,3.9404,3.9363,3.94,3.94,3.94,3.94,3.94,0,3.9067,3.9086,3.9112,3.9146,3.9169,3.9174,3.92,3.9219,3.9246,3.927,3.9293,3.9327,3.9355,3.9377,3.9406,3.9421,3.9424,3.9428,3.9426,3.943,3.9404,3.9397,3.9425,3.9425,3.9425,3.9425,3.9425,3.9425,3.9083,3.9116,3.9129,3.9172,3.919,3.9221,3.9236,3.9257,3.9277,3.9315,3.9339,3.9354,3.9377,3.9408,3.9434,3.944,3.9449,3.9453,3.9459,3.9434,3.9431,3.9429,3.9422,3.9455,3.9455,3.9483,3.9483,3.9483]}]]